Total_Precipitation_Accumulation
0.00 0.00 0.00 0.00 0.00 0.00 0.00 0.00 0.00 0.00 0.00 0.00 0.00 0.00 0.00 0.00 0.00 0.00 0.00 0.00 0.00 0.00 0.00 0.00 0.00 0.00 0.00 0.00 0.00 0.00 0.00 0.00 0.00 0.00 0.01 0.00 0.00 0.00 0.00 0.01 0.03 0.20 0.25 0.19
0.00 0.00 0.00 0.00 0.00 0.00 0.00 0.00 0.00 0.00 0.00 0.00 0.01 0.00 0.00 0.00 0.00 0.00 0.00 0.00 0.00 0.00 0.00 0.00 0.00 0.00 0.00 0.00 0.00 0.00 0.00 0.00 0.00 0.00 0.01 0.04 0.02 0.00 0.00 0.00 0.01 0.05 0.26 0.40
0.01 0.00 0.00 0.00 0.00 0.00 0.00 0.00 0.00 0.00 0.00 0.00 0.03 0.01 0.00 0.00 0.00 0.00 0.00 0.00 0.00 0.00 0.00 0.00 0.00 0.00 0.00 0.00 0.00 0.00 0.00 0.00 0.00 0.00 0.06 0.08 0.07 0.04 0.02 0.01 0.00 0.01 0.05 0.29
0.02 0.00 0.00 0.00 0.00 0.01 0.00 0.00 0.00 0.00 0.00 0.04 0.04 0.03 0.00 0.00 0.00 0.00 0.00 0.00 0.00 0.00 0.00 0.00 0.00 0.00 0.00 0.00 0.00 0.00 0.00 0.00 0.00 0.00 0.00 0.01 0.00 0.00 0.00 0.00 0.01 0.01 0.01 0.05
0.04 0.01 0.01 0.00 0.00 0.02 0.01 0.00 0.00 0.00 0.03 0.02 0.02 0.04 0.00 0.00 0.00 0.00 0.00 0.00 0.00 0.00 0.00 0.00 0.00 0.00 0.00 0.00 0.00 0.00 0.03 0.12 0.11 0.08 0.04 0.01 0.01 0.00 0.00 0.00 0.00 0.01 0.02 0.04
0.01 0.01 0.01 0.00 0.00 0.01 0.01 0.01 0.03 0.05 0.07 0.07 0.00 0.01 0.00 0.01 0.00 0.00 0.00 0.00 0.00 0.00 0.00 0.00 0.00 0.00 0.00 0.00 0.00 0.00 0.00 0.05 0.16 0.13 0.15 0.12 0.07 0.02 0.01 0.00 0.00 0.01 0.02 0.03
0.08 0.09 0.01 0.01 0.00 0.01 0.02 0.06 0.08 0.12 0.14 0.04 0.00 0.00 0.00 0.07 0.07 0.01 0.00 0.00 0.00 0.00 0.00 0.00 0.00 0.00 0.00 0.00 0.00 0.00 0.00 0.00 0.03 0.03 0.03 0.02 0.02 0.03 0.01 0.00 0.00 0.01 0.03 0.03
0.12 0.17 0.08 0.00 0.00 0.01 0.01 0.04 0.07 0.09 0.03 0.01 0.00 0.00 0.01 0.05 0.16 0.09 0.08 0.02 0.00 0.00 0.00 0.00 0.00 0.00 0.00 0.00 0.00 0.00 0.00 0.00 0.00 0.01 0.01 0.00 0.01 0.03 0.01 0.00 0.00 0.00 0.01 0.02
0.21 0.18 0.06 0.01 0.03 0.07 0.04 0.04 0.04 0.25 0.17 0.13 0.02 0.08 0.08 0.11 0.09 0.13 0.08 0.04 0.01 0.00 0.00 0.00 0.00 0.00 0.00 0.00 0.00 0.00 0.00 0.00 0.00 0.00 0.00 0.01 0.04 0.05 0.02 0.01 0.00 0.01 0.01 0.00
0.16 0.39 0.17 0.05 0.06 0.06 0.06 0.05 0.21 0.31 0.30 0.25 0.04 0.15 0.42 0.53 0.66 0.21 0.05 0.02 0.01 0.00 0.00 0.00 0.00 0.00 0.00 0.00 0.00 0.00 0.00 0.00 0.00 0.01 0.00 0.04 0.05 0.03 0.06 0.02 0.00 0.01 0.01 0.00
0.17 0.41 0.31 0.14 0.13 0.09 0.14 0.12 0.16 0.23 0.26 0.43 0.44 0.84 1.15 1.26 1.26 1.04 0.18 0.07 0.02 0.00 0.00 0.00 0.00 0.00 0.00 0.00 0.01 0.03 0.02 0.02 0.01 0.02 0.09 0.10 0.06 0.10 0.14 0.08 0.02 0.01 0.02 0.02
0.07 0.66 0.51 0.17 0.09 0.06 0.14 0.11 0.11 0.33 0.31 0.31 0.75 1.31 1.56 1.23 0.82 0.43 0.27 0.12 0.05 0.03 0.04 0.02 0.01 0.01 0.01 0.01 0.05 0.08 0.06 0.07 0.09 0.14 0.21 0.18 0.20 0.28 0.23 0.14 0.05 0.03 0.04 0.06
0.14 0.49 0.30 0.31 0.42 0.17 0.11 0.10 0.19 0.33 0.44 0.52 0.74 1.11 1.11 0.53 0.31 0.14 0.07 0.04 0.04 0.07 0.11 0.07 0.04 0.03 0.04 0.04 0.06 0.08 0.12 0.12 0.08 0.12 0.19 0.22 0.26 0.37 0.39 0.29 0.12 0.12 0.15 0.08
0.10 0.11 0.12 0.30 0.26 0.12 0.12 0.17 0.18 0.31 0.46 0.47 0.60 0.69 0.36 0.27 0.36 0.24 0.10 0.06 0.10 0.17 0.23 0.20 0.10 0.12 0.15 0.19 0.21 0.22 0.19 0.16 0.15 0.17 0.23 0.25 0.28 0.36 0.40 0.33 0.18 0.21 0.18 0.09
0.05 0.14 0.31 0.21 0.20 0.16 0.50 0.45 0.51 0.44 0.33 0.40 0.50 0.20 0.10 0.06 0.31 0.47 0.31 0.23 0.31 0.60 0.43 0.36 0.33 0.30 0.28 0.28 0.32 0.37 0.38 0.38 0.39 0.50 0.43 0.31 0.25 0.31 0.36 0.28 0.21 0.18 0.15 0.10
0.04 0.14 0.39 0.91 0.52 0.15 0.33 0.21 0.16 0.16 0.21 0.30 0.19 0.22 0.11 0.08 0.16 0.37 0.42 0.45 0.34 0.47 0.73 0.59 0.47 0.35 0.32 0.31 0.32 0.31 0.31 0.36 0.35 0.33 0.36 0.40 0.36 0.38 0.43 0.31 0.30 0.20 0.12 0.06
0.02 0.02 0.08 0.27 0.30 0.07 0.22 0.14 0.04 0.05 0.07 0.06 0.10 0.15 0.09 0.11 0.22 0.33 0.47 0.57 0.47 0.49 0.64 0.74 0.78 0.68 0.58 0.54 0.51 0.48 0.44 0.39 0.37 0.33 0.32 0.31 0.37 0.43 0.48 0.42 0.33 0.30 0.21 0.11
0.01 0.01 0.01 0.06 0.04 0.25 0.50 0.08 0.01 0.05 0.15 0.07 0.08 0.09 0.14 0.24 0.31 0.33 0.44 0.78 0.69 0.69 0.86 0.90 0.89 0.78 0.79 0.72 0.67 0.74 0.75 0.72 0.61 0.48 0.37 0.31 0.34 0.46 0.59 0.53 0.46 0.44 0.32 0.16
0.00 0.00 0.00 0.06 0.08 0.20 0.08 0.01 0.01 0.08 0.10 0.05 0.11 0.36 0.37 0.44 0.57 0.71 0.98 1.16 1.17 0.89 0.66 0.70 0.88 0.97 0.72 0.74 0.67 0.71 0.74 0.91 0.94 0.88 0.75 0.68 0.56 0.58 0.59 0.64 0.57 0.55 0.54 0.43
0.00 0.00 0.01 0.01 0.04 0.16 0.12 0.01 0.00 0.01 0.10 0.04 0.11 0.57 0.58 0.59 0.47 0.53 0.76 1.25 1.12 0.75 0.39 0.29 0.27 0.40 0.73 0.71 0.56 0.58 0.66 0.61 0.82 1.04 1.01 1.08 1.06 0.99 0.98 0.92 1.01 1.01 0.84 0.75
0.00 0.01 0.02 0.02 0.07 0.04 0.00 0.00 0.00 0.08 0.18 0.06 0.04 0.20 0.62 0.82 0.93 0.91 0.93 1.04 0.84 0.61 0.19 0.06 0.03 0.02 0.05 0.29 0.48 0.43 0.44 0.61 0.63 0.65 0.88 0.84 0.96 1.10 1.07 1.17 1.18 1.33 1.45 1.34
0.02 0.12 0.04 0.04 0.07 0.07 0.01 0.01 0.06 0.12 0.08 0.06 0.05 0.05 0.12 0.36 0.44 0.40 0.66 0.64 0.47 0.29 0.06 0.00 0.00 0.00 0.00 0.00 0.04 0.17 0.26 0.31 0.40 0.45 0.41 0.53 0.57 0.56 0.74 0.77 0.83 0.91 0.89 0.96
0.11 0.08 0.06 0.06 0.12 0.17 0.05 0.06 0.06 0.03 0.07 0.07 0.06 0.10 0.18 0.26 0.29 0.37 0.32 0.16 0.06 0.03 0.02 0.00 0.00 0.00 0.00 0.00 0.00 0.01 0.04 0.08 0.11 0.16 0.21 0.25 0.28 0.37 0.39 0.41 0.48 0.45 0.45 0.43
0.16 0.26 0.26 0.32 0.42 0.19 0.10 0.09 0.07 0.06 0.16 0.18 0.13 0.07 0.08 0.07 0.09 0.13 0.11 0.05 0.02 0.01 0.00 0.00 0.00 0.00 0.00 0.00 0.00 0.01 0.00 0.00 0.01 0.03 0.05 0.07 0.09 0.12 0.15 0.21 0.27 0.34 0.37 0.36
0.12 0.23 0.47 0.63 0.45 0.29 0.17 0.18 0.25 0.29 0.15 0.13 0.16 0.13 0.10 0.07 0.06 0.06 0.05 0.03 0.01 0.00 0.00 0.00 0.00 0.00 0.00 0.00 0.00 0.00 0.00 0.00 0.00 0.00 0.01 0.02 0.01 0.01 0.03 0.07 0.10 0.13 0.20 0.19
0.09 0.15 0.25 0.54 0.53 0.41 0.34 0.28 0.21 0.20 0.23 0.13 0.05 0.02 0.01 0.00 0.00 0.00 0.00 0.00 0.00 0.00 0.00 0.00 0.00 0.00 0.00 0.00 0.00 0.01 0.00 0.00 0.00 0.01 0.01 0.02 0.03 0.01 0.00 0.01 0.02 0.05 0.07 0.05